Wolke Sonne

Wetter Ammerndorf

Gehe zu: Roßtal

Tageswerte vom Mittwoch, 29.05.2024

Optionen

Tag:
Erweitert:

Alle Werte vom Mittwoch, 29.05.2024

Einen Moment bitte, die Daten werden aufbereitet...

UhrzeitTemperaturBoden 10cmBoden 20cmFeuchteLuftdruckNiederschlagEvapotranspirationWindWindböenWindrichtungSolarstrahlungUV-IndexSonne?Uhrzeit
Diagramm IconDiagramm IconDiagramm IconDiagramm IconDiagramm IconDiagramm IconDiagramm IconDiagramm IconDiagramm IconDiagramm IconDiagramm IconDiagramm IconDiagramm Icon
00:008,2 °C 16,1 °C 16,7 °C 84 % 1018,7 hPa 0,0 mm - 0,0 km/h 0,0 km/h WSW 0,0 W/qm 0,0 nein 00:00
00:058,1 °C 16,1 °C 16,7 °C 85 % 1018,7 hPa 0,0 mm 0,0 mm 0,0 km/h 0,0 km/h WSW 0,0 W/qm 0,0 nein 00:05
00:108,1 °C 16,1 °C 16,7 °C 85 % 1018,8 hPa 0,0 mm 0,0 mm 0,0 km/h 0,0 km/h WSW 0,0 W/qm 0,0 nein 00:10
00:158,0 °C 16,1 °C 16,7 °C 85 % 1018,8 hPa 0,0 mm - 0,0 km/h 0,0 km/h WSW 0,0 W/qm 0,0 nein 00:15
00:207,9 °C 16,1 °C 16,7 °C 85 % 1018,8 hPa 0,0 mm - 0,0 km/h 0,0 km/h WSW 0,0 W/qm 0,0 nein 00:20
00:257,8 °C 16,1 °C 16,7 °C 86 % 1018,7 hPa 0,0 mm - 0,0 km/h 0,0 km/h WSW 0,0 W/qm 0,0 nein 00:25
00:307,7 °C 16,1 °C 16,7 °C 86 % 1018,7 hPa 0,0 mm - 0,0 km/h 0,0 km/h WSW 0,0 W/qm 0,0 nein 00:30
00:357,7 °C 16,1 °C 16,7 °C 86 % 1018,7 hPa 0,0 mm - 0,0 km/h 0,0 km/h WSW 0,0 W/qm 0,0 nein 00:35
00:407,6 °C 16,1 °C 16,7 °C 86 % 1018,8 hPa 0,0 mm - 0,0 km/h 0,0 km/h WSW 0,0 W/qm 0,0 nein 00:40
00:457,6 °C 16,1 °C 16,7 °C 87 % 1018,7 hPa 0,0 mm - 0,0 km/h 0,0 km/h WSW 0,0 W/qm 0,0 nein 00:45
00:507,5 °C 16,1 °C 16,7 °C 87 % 1018,7 hPa 0,0 mm - 0,0 km/h 0,0 km/h WSW 0,0 W/qm 0,0 nein 00:50
00:557,4 °C 16,1 °C 16,7 °C 87 % 1018,7 hPa 0,0 mm - 0,0 km/h 0,0 km/h WSW 0,0 W/qm 0,0 nein 00:55
01:007,4 °C 16,1 °C 16,7 °C 87 % 1018,7 hPa 0,0 mm - 0,0 km/h 0,0 km/h WSW 0,0 W/qm 0,0 nein 01:00
01:057,3 °C 16,1 °C 16,7 °C 87 % 1018,6 hPa 0,0 mm 0,0 mm 0,0 km/h 0,0 km/h WSW 0,0 W/qm 0,0 nein 01:05
01:107,3 °C 16,1 °C 16,7 °C 87 % 1018,6 hPa 0,0 mm 0,0 mm 0,0 km/h 0,0 km/h WSW 0,0 W/qm 0,0 nein 01:10
01:157,3 °C 16,1 °C 16,7 °C 88 % 1018,6 hPa 0,0 mm - 0,0 km/h 0,0 km/h WSW 0,0 W/qm 0,0 nein 01:15
01:207,2 °C 16,1 °C 16,7 °C 88 % 1018,6 hPa 0,0 mm - 0,0 km/h 0,0 km/h WSW 0,0 W/qm 0,0 nein 01:20
01:257,2 °C 16,1 °C 16,7 °C 88 % 1018,5 hPa 0,0 mm - 0,0 km/h 0,0 km/h WSW 0,0 W/qm 0,0 nein 01:25
01:307,1 °C 16,1 °C 16,7 °C 89 % 1018,4 hPa 0,0 mm - 0,0 km/h 0,0 km/h WSW 0,0 W/qm 0,0 nein 01:30
01:357,1 °C 15,6 °C 16,7 °C 89 % 1018,3 hPa 0,0 mm - 0,0 km/h 0,0 km/h WSW 0,0 W/qm 0,0 nein 01:35
01:407,0 °C 15,6 °C 16,7 °C 89 % 1018,3 hPa 0,0 mm - 0,0 km/h 0,0 km/h WSW 0,0 W/qm 0,0 nein 01:40
01:457,0 °C 15,6 °C 16,7 °C 89 % 1018,3 hPa 0,0 mm - 0,0 km/h 0,0 km/h WSW 0,0 W/qm 0,0 nein 01:45
01:507,0 °C 15,6 °C 16,7 °C 89 % 1018,2 hPa 0,0 mm - 0,0 km/h 0,0 km/h WSW 0,0 W/qm 0,0 nein 01:50
01:557,0 °C 15,6 °C 16,7 °C 90 % 1018,1 hPa 0,0 mm - 0,0 km/h 0,0 km/h WSW 0,0 W/qm 0,0 nein 01:55
UhrzeitTemperaturBoden 10cmBoden 20cmFeuchteLuftdruckNiederschlagEvapotranspirationWindWindböenWindrichtungSolarstrahlungUV-IndexSonne?Uhrzeit
02:007,0 °C 15,6 °C 16,7 °C 90 % 1018,1 hPa 0,0 mm - 0,0 km/h 0,0 km/h WSW 0,0 W/qm 0,0 nein 02:00
02:057,1 °C 15,6 °C 16,7 °C 90 % 1018,1 hPa 0,0 mm 0,0 mm 0,0 km/h 0,0 km/h WSW 0,0 W/qm 0,0 nein 02:05
02:107,1 °C 15,6 °C 16,7 °C 90 % 1018,1 hPa 0,0 mm 0,0 mm 0,0 km/h 0,0 km/h WSW 0,0 W/qm 0,0 nein 02:10
02:157,2 °C 15,6 °C 16,7 °C 90 % 1018,1 hPa 0,0 mm - 0,0 km/h 0,0 km/h WSW 0,0 W/qm 0,0 nein 02:15
02:207,2 °C 15,6 °C 16,7 °C 91 % 1018,0 hPa 0,0 mm - 0,0 km/h 0,0 km/h WSW 0,0 W/qm 0,0 nein 02:20
02:257,3 °C 15,6 °C 16,7 °C 91 % 1017,9 hPa 0,0 mm - 0,0 km/h 0,0 km/h WSW 0,0 W/qm 0,0 nein 02:25
02:307,3 °C 15,6 °C 16,7 °C 91 % 1017,9 hPa 0,0 mm - 0,0 km/h 0,0 km/h WSW 0,0 W/qm 0,0 nein 02:30
02:357,4 °C 15,6 °C 16,7 °C 91 % 1017,7 hPa 0,0 mm - 0,0 km/h 0,0 km/h WSW 0,0 W/qm 0,0 nein 02:35
02:407,4 °C 15,6 °C 16,7 °C 91 % 1017,7 hPa 0,0 mm - 0,0 km/h 0,0 km/h WSW 0,0 W/qm 0,0 nein 02:40
02:457,4 °C 15,6 °C 16,7 °C 91 % 1017,7 hPa 0,0 mm - 0,0 km/h 0,0 km/h WSW 0,0 W/qm 0,0 nein 02:45
02:507,4 °C 15,6 °C 16,7 °C 91 % 1017,6 hPa 0,0 mm - 0,0 km/h 0,0 km/h WSW 0,0 W/qm 0,0 nein 02:50
02:557,5 °C 15,6 °C 16,7 °C 91 % 1017,6 hPa 0,0 mm - 0,0 km/h 0,0 km/h WSW 0,0 W/qm 0,0 nein 02:55
03:007,5 °C 15,6 °C 16,7 °C 91 % 1017,6 hPa 0,0 mm - 0,0 km/h 0,0 km/h WSW 0,0 W/qm 0,0 nein 03:00
03:057,5 °C 15,6 °C 16,7 °C 91 % 1017,6 hPa 0,0 mm 0,0 mm 0,0 km/h 0,0 km/h WSW 0,0 W/qm 0,0 nein 03:05
03:107,6 °C 15,6 °C 16,7 °C 91 % 1017,5 hPa 0,0 mm 0,0 mm 0,0 km/h 0,0 km/h WSW 0,0 W/qm 0,0 nein 03:10
03:157,6 °C 15,6 °C 16,7 °C 91 % 1017,5 hPa 0,0 mm - 0,0 km/h 0,0 km/h WSW 0,0 W/qm 0,0 nein 03:15
03:207,6 °C 15,6 °C 16,7 °C 92 % 1017,4 hPa 0,0 mm - 0,0 km/h 0,0 km/h WSW 0,0 W/qm 0,0 nein 03:20
03:257,6 °C 15,6 °C 16,7 °C 92 % 1017,4 hPa 0,0 mm - 0,0 km/h 0,0 km/h WSW 0,0 W/qm 0,0 nein 03:25
03:307,7 °C 15,6 °C 16,1 °C 92 % 1017,3 hPa 0,0 mm - 0,0 km/h 0,0 km/h WSW 0,0 W/qm 0,0 nein 03:30
03:357,7 °C 15,6 °C 16,1 °C 92 % 1017,2 hPa 0,0 mm - 0,0 km/h 0,0 km/h WSW 0,0 W/qm 0,0 nein 03:35
03:407,8 °C 15,6 °C 16,1 °C 92 % 1017,2 hPa 0,0 mm - 0,0 km/h 0,0 km/h WSW 0,0 W/qm 0,0 nein 03:40
03:457,8 °C 15,6 °C 16,1 °C 92 % 1017,3 hPa 0,0 mm - 0,0 km/h 0,0 km/h WSW 0,0 W/qm 0,0 nein 03:45
03:507,8 °C 15,6 °C 16,1 °C 92 % 1017,2 hPa 0,0 mm - 0,0 km/h 0,0 km/h WSW 0,0 W/qm 0,0 nein 03:50
03:557,9 °C 15,6 °C 16,1 °C 92 % 1017,1 hPa 0,0 mm - 0,0 km/h 0,0 km/h WSW 0,0 W/qm 0,0 nein 03:55
UhrzeitTemperaturBoden 10cmBoden 20cmFeuchteLuftdruckNiederschlagEvapotranspirationWindWindböenWindrichtungSolarstrahlungUV-IndexSonne?Uhrzeit
04:007,9 °C 15,6 °C 16,1 °C 92 % 1017,0 hPa 0,0 mm - 0,0 km/h 0,0 km/h WSW 0,0 W/qm 0,0 nein 04:00
04:057,9 °C 15,6 °C 16,1 °C 92 % 1017,1 hPa 0,0 mm 0,0 mm 0,0 km/h 0,0 km/h WSW 0,0 W/qm 0,0 nein 04:05
04:108,0 °C 15,6 °C 16,1 °C 92 % 1017,0 hPa 0,0 mm 0,0 mm 0,0 km/h 0,0 km/h WSW 0,0 W/qm 0,0 nein 04:10
04:158,0 °C 15,6 °C 16,1 °C 92 % 1017,0 hPa 0,0 mm - 0,0 km/h 0,0 km/h WSW 0,0 W/qm 0,0 nein 04:15
04:208,0 °C 15,0 °C 16,1 °C 92 % 1017,0 hPa 0,0 mm - 0,0 km/h 0,0 km/h WSW 0,0 W/qm 0,0 nein 04:20
04:258,1 °C 15,0 °C 16,1 °C 92 % 1016,9 hPa 0,0 mm - 0,0 km/h 0,0 km/h WSW 0,0 W/qm 0,0 nein 04:25
04:308,1 °C 15,0 °C 16,1 °C 92 % 1016,8 hPa 0,0 mm - 0,0 km/h 0,0 km/h WSW 0,0 W/qm 0,0 nein 04:30
04:358,1 °C 15,0 °C 16,1 °C 92 % 1016,8 hPa 0,0 mm - 0,0 km/h 0,0 km/h WSW 0,0 W/qm 0,0 nein 04:35
04:408,2 °C 15,0 °C 16,1 °C 92 % 1016,7 hPa 0,0 mm - 0,0 km/h 0,0 km/h WSW 0,0 W/qm 0,0 nein 04:40
04:458,2 °C 15,0 °C 16,1 °C 92 % 1016,7 hPa 0,0 mm - 0,0 km/h 0,0 km/h WSW 0,0 W/qm 0,0 nein 04:45
04:508,2 °C 15,0 °C 16,1 °C 92 % 1016,6 hPa 0,0 mm - 0,0 km/h 0,0 km/h WSW 0,0 W/qm 0,0 nein 04:50
04:558,3 °C 15,0 °C 16,1 °C 92 % 1016,6 hPa 0,0 mm - 0,0 km/h 0,0 km/h WSW 0,0 W/qm 0,0 nein 04:55
05:008,3 °C 15,0 °C 16,1 °C 93 % 1016,6 hPa 0,0 mm - 0,0 km/h 0,0 km/h WSW 0,0 W/qm 0,0 nein 05:00
05:058,3 °C 15,0 °C 16,1 °C 93 % 1016,6 hPa 0,0 mm 0,0 mm 0,0 km/h 0,0 km/h WSW 0,0 W/qm 0,0 nein 05:05
05:108,4 °C 15,0 °C 16,1 °C 93 % 1016,4 hPa 0,0 mm 0,0 mm 0,0 km/h 0,0 km/h WSW 0,0 W/qm 0,0 nein 05:10
05:158,4 °C 15,0 °C 16,1 °C 92 % 1016,4 hPa 0,0 mm - 0,0 km/h 0,0 km/h WSW 0,0 W/qm 0,0 nein 05:15
05:208,4 °C 15,0 °C 16,1 °C 92 % 1016,4 hPa 0,0 mm - 0,0 km/h 0,0 km/h WSW 0,0 W/qm 0,0 nein 05:20
05:258,4 °C 15,0 °C 16,1 °C 92 % 1016,4 hPa 0,0 mm - 0,0 km/h 0,0 km/h WSW 0,0 W/qm 0,0 nein 05:25
05:308,4 °C 15,0 °C 16,1 °C 92 % 1016,4 hPa 0,0 mm - 0,0 km/h 0,0 km/h WSW 5,0 W/qm 0,0 nein 05:30
05:358,5 °C 15,0 °C 16,1 °C 92 % 1016,3 hPa 0,0 mm - 0,0 km/h 0,0 km/h WSW 5,0 W/qm 0,0 nein 05:35
05:408,5 °C 15,0 °C 16,1 °C 93 % 1016,3 hPa 0,0 mm - 0,0 km/h 0,0 km/h WSW 7,0 W/qm 0,0 nein 05:40
05:458,6 °C 15,0 °C 16,1 °C 93 % 1016,3 hPa 0,0 mm - 0,0 km/h 0,0 km/h WSW 9,0 W/qm 0,0 nein 05:45
05:508,6 °C 15,0 °C 16,1 °C 93 % 1016,3 hPa 0,0 mm - 0,0 km/h 0,0 km/h WSW 11,0 W/qm 0,0 nein 05:50
05:558,6 °C 15,0 °C 16,1 °C 93 % 1016,2 hPa 0,0 mm - 0,0 km/h 0,0 km/h WSW 12,0 W/qm 0,0 nein 05:55
UhrzeitTemperaturBoden 10cmBoden 20cmFeuchteLuftdruckNiederschlagEvapotranspirationWindWindböenWindrichtungSolarstrahlungUV-IndexSonne?Uhrzeit
06:008,6 °C 15,0 °C 16,1 °C 93 % 1016,2 hPa 0,0 mm - 0,0 km/h 0,0 km/h WSW 16,0 W/qm 0,0 nein 06:00
06:058,7 °C 15,0 °C 16,1 °C 93 % 1016,2 hPa 0,0 mm 0,0 mm 0,0 km/h 0,0 km/h WSW 19,0 W/qm 0,0 nein 06:05
06:108,7 °C 15,0 °C 16,1 °C 93 % 1016,1 hPa 0,0 mm 0,0 mm 0,0 km/h 0,0 km/h WSW 23,0 W/qm 0,0 nein 06:10
06:158,8 °C 15,0 °C 16,1 °C 93 % 1016,2 hPa 0,0 mm - 0,0 km/h 0,0 km/h WSW 28,0 W/qm 0,0 nein 06:15
06:208,8 °C 15,0 °C 16,1 °C 93 % 1016,1 hPa 0,0 mm - 0,0 km/h 0,0 km/h WSW 33,0 W/qm 0,0 nein 06:20
06:258,9 °C 15,0 °C 16,1 °C 93 % 1016,1 hPa 0,0 mm - 0,0 km/h 0,0 km/h WSW 40,0 W/qm 0,0 nein 06:25
06:309,0 °C 15,0 °C 16,1 °C 93 % 1015,9 hPa 0,0 mm - 0,0 km/h 0,0 km/h WSW 56,0 W/qm 0,0 nein 06:30
06:359,1 °C 15,0 °C 16,1 °C 93 % 1015,9 hPa 0,0 mm - 0,0 km/h 0,0 km/h WSW 72,0 W/qm 0,0 nein 06:35
06:409,2 °C 15,0 °C 16,1 °C 93 % 1015,9 hPa 0,0 mm - 0,0 km/h 0,0 km/h WSW 86,0 W/qm 0,0 nein 06:40
06:459,2 °C 15,0 °C 16,1 °C 93 % 1015,9 hPa 0,0 mm - 0,0 km/h 0,0 km/h WSW 95,0 W/qm 0,0 nein 06:45
06:509,3 °C 15,0 °C 16,1 °C 93 % 1015,8 hPa 0,0 mm - 0,0 km/h 0,0 km/h WSW 102,0 W/qm 0,0 nein 06:50
06:559,4 °C 15,0 °C 16,1 °C 93 % 1015,7 hPa 0,0 mm - 0,0 km/h 0,0 km/h WSW 114,0 W/qm 0,0 nein 06:55
07:009,5 °C 15,0 °C 16,1 °C 93 % 1015,7 hPa 0,0 mm - 0,0 km/h 0,0 km/h WSW 127,0 W/qm 0,0 nein 07:00
07:059,7 °C 15,0 °C 16,1 °C 93 % 1015,5 hPa 0,0 mm 0,0 mm 0,0 km/h 0,0 km/h WSW 176,0 W/qm 0,0 nein 07:05
Gesamt: 8,0 °C 15,5 °C 16,4 °C 91 % 1017,3 hPa 0,0 mm 0,0 mm 0,0 km/h 0,0 km/h 0 12,0 W/qm 0,0 nein

Insgesamt 86 Zeilen mal 13 Spalten = 1118 Werte werden angezeigt.

www.wetter-rosstal.de   •   www.wetter-franken.de   •   www.lightningmaps.org   •   Start   •   Kontakt / Datenschutz